Weather History for K8A0 - February, 2013

Change the Weather History Date:

Monday, February 11, 2013

  Actual Average (KGAD) Record (KGAD)
Temperature  
Mean Temperature 50 °F -  
Max Temperature 55 °F 53 °F 80 °F (1932)
Min Temperature 44 °F 34 °F 12 °F (1947)
Degree Days  
Heating Degree Days 16    
Moisture  
Dew Point 45 °F    
Average Humidity 80    
Maximum Humidity 100    
Minimum Humidity 58    
Precipitation  
Precipitation 0.06 in - - ()
Sea Level Pressure  
Sea Level Pressure 30.09 in    
Wind  
Wind Speed 4 mph (West)    
Max Wind Speed 9 mph    
Max Gust Speed -    
Visibility 9 miles    
Events Rain    
Averages and records for this station are not official NWS values.
T = Trace of Precipitation, MM = Missing Value Source: NWS Daily Summary

Daily Weather History Graph

Daily Weather History Graph

Search for Another Location

Airport or City:

Trip Planner

Search our weather history database for the weather conditions in past years. The results will help you decide how hot, cold, wet, or windy it might be!

Date:

Astronomy

Feb. 11, 2013 Rise Set
Actual Time 6:33 AM CST 5:25 PM CST
Civil Twilight 6:07 AM CST 5:51 PM CST
Nautical Twilight 5:38 AM CST 6:20 PM CST
Astronomical Twilight 5:09 AM CST 6:49 PM CST
Moon 7:04 AM CST (2/11) 7:13 PM CST (2/11)
Length of Visible Light 11h 43m
Length of Day
10h 51m
Waxing Crescent, 3% of the Moon is Illuminated
Feb 11
Waxing Crescent
Feb 17
First Quarter
Feb 25
Full
Mar 4
Last Quarter
Mar 11
New

Hourly Weather History & Observations

Time (CST) Temp. Windchill Dew Point Humidity Pressure Visibility Wind Dir Wind Speed Gust Speed Precip Events Conditions
12:15 AM 55.4 °F - - N/A% 30.00 in 10.0 mi SSE 6.9 mph - N/A   Overcast
12:35 AM 53.6 °F - - N/A% 30.00 in 10.0 mi SE 5.8 mph - N/A   Overcast
12:55 AM 53.6 °F - - N/A% 30.00 in 10.0 mi ESE 3.5 mph - N/A Rain Light Rain
1:15 AM 53.6 °F - - N/A% 30.00 in 10.0 mi ESE 4.6 mph - N/A   Overcast
1:35 AM 53.6 °F - - N/A% 30.03 in 10.0 mi SE 4.6 mph - N/A   Overcast
1:55 AM 53.6 °F - - N/A% 30.05 in 10.0 mi South 4.6 mph - N/A   Overcast
2:15 AM 53.6 °F - - N/A% 30.03 in 7.0 mi SSE 8.1 mph - N/A   Overcast
2:35 AM 53.6 °F - - N/A% 30.05 in 4.0 mi West 5.8 mph - 0.01 in   Drizzle
2:55 AM 53.6 °F - - N/A% 30.03 in 3.0 mi South 4.6 mph - 0.04 in Rain Light Rain
3:15 AM 53.6 °F - - N/A% 30.00 in 1.5 mi SE 5.8 mph - 0.01 in Rain Light Rain
3:35 AM 53.6 °F - - N/A% 30.01 in 5.0 mi SSE 3.5 mph - 0.01 in   Light Drizzle
3:55 AM 53.6 °F - - N/A% 30.01 in 5.0 mi Calm Calm - 0.01 in   Haze
4:15 AM 53.6 °F - - N/A% 30.02 in 4.0 mi SSE 4.6 mph - N/A   Haze
4:35 AM 53.6 °F - - N/A% 30.02 in 5.0 mi South 4.6 mph - N/A   Haze
4:55 AM 53.6 °F - - N/A% 30.03 in 4.0 mi Calm Calm - N/A   Light Drizzle
5:15 AM 53.6 °F - - N/A% 30.03 in 4.0 mi Calm Calm - N/A   Haze
5:35 AM 53.6 °F - - N/A% 30.05 in 4.0 mi WSW 3.5 mph - N/A   Haze
5:55 AM 53.6 °F - - N/A% 30.06 in 1.8 mi West 3.5 mph - N/A   Overcast
6:15 AM 53.6 °F - - N/A% 30.06 in 3.0 mi West 4.6 mph - N/A Rain Rain
6:35 AM 55.4 °F - - N/A% 30.05 in 7.0 mi Calm Calm - N/A   Overcast
6:55 AM 53.6 °F - - N/A% 30.05 in 7.0 mi Calm Calm - N/A   Overcast
7:15 AM 53.6 °F - - N/A% 30.08 in 10.0 mi WSW 4.6 mph - 0.01 in   Overcast
7:35 AM 53.6 °F - - N/A% 30.09 in 7.0 mi West 5.8 mph - 0.01 in   Overcast
7:55 AM 55.4 °F - - N/A% 30.10 in 5.0 mi West 5.8 mph - 0.01 in   Haze
8:15 AM 55.4 °F - - N/A% 30.10 in 10.0 mi West 5.8 mph - N/A   Overcast
8:35 AM 55.4 °F - - N/A% 30.13 in 10.0 mi WNW 6.9 mph - N/A   Overcast
8:55 AM 55.4 °F - 55.4 °F 100% 30.13 in 10.0 mi NW 4.6 mph - N/A   Overcast
9:15 AM 55.4 °F - 55.4 °F 100% 30.12 in 10.0 mi NW 5.8 mph - N/A   Overcast
9:35 AM 55.4 °F - 55.4 °F 100% 30.12 in 10.0 mi WNW 3.5 mph - N/A   Mostly Cloudy
9:55 AM 55.4 °F - 55.4 °F 100% 30.10 in 10.0 mi Calm Calm - N/A   Overcast
10:15 AM 55.4 °F - 55.4 °F 100% 30.12 in 10.0 mi WNW 4.6 mph - N/A   Overcast
10:35 AM 55.4 °F - 55.4 °F 100% 30.15 in 10.0 mi West 5.8 mph - N/A   Overcast
10:55 AM 55.4 °F - 55.4 °F 100% 30.16 in 10.0 mi West 6.9 mph - N/A   Overcast
11:15 AM 55.4 °F - 55.4 °F 100% 30.14 in 10.0 mi West 5.8 mph - N/A   Overcast
11:35 AM 55.4 °F - 55.4 °F 100% 30.14 in 10.0 mi West 5.8 mph - N/A   Overcast
11:55 AM 55.4 °F - 55.4 °F 100% 30.13 in 10.0 mi WNW 4.6 mph - N/A   Mostly Cloudy
12:15 PM 55.4 °F - 53.6 °F 94% 30.12 in 10.0 mi West 6.9 mph - N/A   Scattered Clouds
12:35 PM 55.4 °F - 44.6 °F 67% 30.12 in 10.0 mi West 5.8 mph - N/A   Mostly Cloudy
12:55 PM 55.4 °F - 44.6 °F 67% 30.11 in 10.0 mi Calm Calm - N/A   Overcast
1:15 PM 55.4 °F - 46.4 °F 72% 30.11 in 10.0 mi WNW 6.9 mph - N/A   Overcast
1:35 PM 53.6 °F - 46.4 °F 77% 30.09 in 10.0 mi West 3.5 mph - N/A   Overcast
1:55 PM 53.6 °F - 42.8 °F 67% 30.12 in 10.0 mi NW 9.2 mph - N/A   Overcast
2:15 PM 53.6 °F - 39.2 °F 58% 30.13 in 10.0 mi NW 6.9 mph - N/A   Overcast
2:35 PM 53.6 °F - 41.0 °F 62% 30.09 in 10.0 mi Calm Calm - N/A   Mostly Cloudy
2:55 PM 53.6 °F - 39.2 °F 58% 30.09 in 10.0 mi NNW 3.5 mph - N/A   Scattered Clouds
3:15 PM 53.6 °F - 41.0 °F 62% 30.10 in 10.0 mi Calm Calm - N/A   Clear
3:35 PM 53.6 °F - 39.2 °F 58% 30.09 in 10.0 mi NNW 3.5 mph - N/A   Clear
3:55 PM 53.6 °F - 39.2 °F 58% 30.10 in 10.0 mi Calm Calm - N/A   Clear
4:55 PM 51.8 °F - 41.0 °F 67% 30.09 in 10.0 mi NNW 3.5 mph - N/A   Scattered Clouds
5:15 PM 51.8 °F - 41.0 °F 67% 30.09 in 10.0 mi Calm Calm - N/A   Clear
5:35 PM 50.0 °F - 41.0 °F 71% 30.08 in 10.0 mi North 3.5 mph - N/A   Clear
5:55 PM 50.0 °F - 41.0 °F 71% 30.11 in 10.0 mi Calm Calm - N/A   Clear
6:15 PM 50.0 °F - 41.0 °F 71% 30.09 in 10.0 mi Calm Calm - N/A   Clear
6:35 PM 50.0 °F - 41.0 °F 71% 30.10 in 10.0 mi NNW 3.5 mph - N/A   Clear
6:55 PM 50.0 °F - 41.0 °F 71% 30.10 in 10.0 mi Calm Calm - N/A   Scattered Clouds
7:15 PM 46.4 °F - 41.0 °F 81% 30.09 in 10.0 mi Calm Calm - N/A   Scattered Clouds
7:35 PM 48.2 °F - 41.0 °F 76% 30.10 in 10.0 mi Calm Calm - N/A   Scattered Clouds
7:55 PM 46.4 °F - 41.0 °F 81% 30.11 in 10.0 mi Calm Calm - N/A   Overcast
8:15 PM 46.4 °F 45.2 °F 42.8 °F 87% 30.09 in 10.0 mi North 3.5 mph - N/A   Overcast
8:35 PM 46.4 °F 45.2 °F 41.0 °F 81% 30.13 in 10.0 mi West 3.5 mph - N/A   Mostly Cloudy
8:55 PM 46.4 °F - 41.0 °F 81% 30.11 in 10.0 mi Calm Calm - N/A   Scattered Clouds
9:15 PM 46.4 °F 45.2 °F 41.0 °F 81% 30.14 in 10.0 mi West 3.5 mph - N/A   Scattered Clouds
9:35 PM 46.4 °F 43.5 °F 41.0 °F 81% 30.12 in 10.0 mi North 5.8 mph - N/A   Scattered Clouds
9:55 PM 44.6 °F 43.1 °F 41.0 °F 87% 30.14 in 10.0 mi NW 3.5 mph - N/A   Clear
10:15 PM 46.4 °F - 39.2 °F 76% 30.11 in 10.0 mi Calm Calm - N/A   Scattered Clouds
10:35 PM 44.6 °F - 41.0 °F 87% 30.11 in 10.0 mi Calm Calm - N/A   Scattered Clouds
10:55 PM 44.6 °F - 41.0 °F 87% 30.13 in 10.0 mi Calm Calm - N/A   Clear
11:15 PM 44.6 °F - 41.0 °F 87% 30.11 in 10.0 mi Calm Calm - N/A   Clear
11:35 PM 44.6 °F - 41.0 °F 87% 30.12 in 10.0 mi Calm Calm - N/A   Clear
11:55 PM 44.6 °F 40.7 °F 41.0 °F 87% 30.10 in 10.0 mi North 6.9 mph - N/A   Scattered Clouds